This is the latest recevied weather packets stored in our database for station/object KQ4PPF. If no packets are shown the sender has not sent any weather packets the latest 10 day(s).
| Time | Temp. | Humidity | Pressure | Rain* | Wind** | Luminosity | Snow |
|---|---|---|---|---|---|---|---|
| 1777614132 | 11.11° C | 80% | 1014.3 hPa | 0 mm | - | 0 W/m² | - |
| 1777613827 | 11.11° C | 81% | 1014.3 hPa | 0 mm | - | 0 W/m² | - |
| 1777613525 | 11.11° C | 81% | 1014 hPa | 0 mm | - | 0 W/m² | - |
| 1777613221 | 11.11° C | 81% | 1014.2 hPa | 0 mm | - | 0 W/m² | - |
| 1777612918 | 11.11° C | 82% | 1014.2 hPa | 0 mm | - | 0 W/m² | - |
| 1777612614 | 11.11° C | 83% | 1014.1 hPa | 0 mm | - | 0 W/m² | - |
| 1777612310 | 11.11° C | 82% | 1014 hPa | 0 mm | - | 0 W/m² | - |
| 1777612005 | 11.11° C | 82% | 1013.9 hPa | 0 mm | - | 0 W/m² | - |
| 1777611701 | 11.67° C | 82% | 1014.1 hPa | 0 mm | - | 0 W/m² | - |
| 1777611397 | 11.67° C | 82% | 1013.8 hPa | 0 mm | - | 0 W/m² | - |
| 1777611095 | 11.67° C | 81% | 1013.9 hPa | 0 mm | - | 0 W/m² | - |
| 1777610795 | 11.67° C | 78% | 1013.9 hPa | 0 mm | - | 0 W/m² | - |
| 1777610494 | 11.67° C | 78% | 1013.8 hPa | 0 mm | - | 0 W/m² | - |
| 1777610190 | 11.67° C | 76% | 1013.9 hPa | 0 mm | - | 0 W/m² | - |
| 1777609887 | 11.67° C | 79% | 1013.8 hPa | 0 mm | - | 0 W/m² | - |
| 1777609584 | 11.67° C | 79% | 1013.9 hPa | 0 mm | - | 0 W/m² | - |
| 1777609281 | 11.67° C | 78% | 1014.1 hPa | 0 mm | - | 0 W/m² | - |
| 1777608979 | 11.67° C | 81% | 1014 hPa | 0 mm | - | 0 W/m² | - |
| 1777608675 | 11.67° C | 79% | 1014.1 hPa | 0 mm | - | 0 W/m² | - |
| 1777608372 | 11.67° C | 82% | 1014.1 hPa | 0 mm | - | 0 W/m² | - |
| 1777608071 | 11.67° C | 81% | 1014.2 hPa | 0 mm | - | 0 W/m² | - |
| 1777607771 | 11.67° C | 82% | 1014 hPa | 0 mm | - | 0 W/m² | - |
| 1777607468 | 11.67° C | 83% | 1014 hPa | 0 mm | - | 0 W/m² | - |
| 1777607164 | 11.67° C | 83% | 1013.9 hPa | 0 mm | - | 0 W/m² | - |
| 1777606860 | 11.67° C | 84% | 1014.3 hPa | 0 mm | - | 0 W/m² | - |
* Rain latest hour (hover to see other rain measurements)
** Current wind speed in m/s (hover to see current wind gust speed)